sat.trackr.live / text

‹ back to catalog

KUIPER-00126

NORAD 65955 · 2025-228J

PAYLOAD ACTIVE UNKNOWN

§ Identity

Operator
Country
US
Launch date
2025-10-14
Launch site
AFETR
Launch vehicle
Mass (kg)
RCS (m²)

External: N2YO · Heavens-Above · Gunter

§ Orbital elements

Epoch: 2026-09-19T14:34:29.390304Z

Period
97.30 min
Inclination
51.8954°
Eccentricity
0.0001076
Mean motion
14.79924207 rev/d
Perigee alt
628.8 km
Apogee alt
630.3 km
Semi-major
7,007.7 km
B*
1.3187e-4
RAAN
223.0804°
Arg perigee
82.2500°
Mean anomaly
277.8584°
Rev number
5,194

§ Raw data

KUIPER-001261 65955U 25228J   26262.60728461  .00000784  00000+0  13187-3 0  99922 65955  51.8954 223.0804 0001076  82.2500 277.8584 14.79924207 51949

JSON: /api/v1/satellites/65955 · /tle

For live sub-satellite position, see the globe view (requires WebGL).

§ Visibility from observer

Set your observer location to see the next 7 days of passes ≥ 10°. The values pass through the URL so the page stays shareable.

No JS? Fill the form by hand. The geolocation button needs JavaScript.